Flag for Germany Weather past 2 weeks in Lahr, Baden-Württemberg, Germany

Now
97 °F

Overcast.


Feels Like: 97 °F
Forecast: 68 / 96 °F
Wind: 3 mph from Southwest

Location: Lahr

Current Time: Jul 4, 2015 at 3:53:49 PM

Latest Report: Jul 4, 2015 at 3:00 PM


Visibility: 28 mi

Pressure: 30.08 "Hg

Humidity: 30%

Dew point: 60 °F

Location of LahrLocation

Historic Weather in Lahr — Graph

°F

Lahr temperature yesterday

Maximum temperature yesterday: 95 °F (at 4:00 PM)
Minimum temperature yesterday: 70 °F (at 5:00 AM)
Average temperature yesterday: 83 °F

Past Weeks' High & Low Weather Summary

 TemperatureHumidityPressure
High97 °F (Jul 4, 3:00 PM)99% (Jun 24, 5:00 AM)30.22 "Hg (Jun 24, 5:00 AM)
Low47 °F (Jun 24, 6:00 AM)30% (Jul 4, 3:00 PM)29.75 "Hg (Jun 22, 8:00 PM)
Average69 °F66%30.10 "Hg
* Reported Jun 19 3:00 PM — Jul 4 3:00 PM, Lahr, Weather by CustomWeather, © 2015

Note: Actual official high and low records may vary slightly from our data, if they occured in-between our weather recording intervals... More about our weather records

Advertising

Lahr weather history for previous 24 hours

 ConditionsComfort  
Time TempWeatherWind HumidityBarometerVisibility
3:00 PM
Sat, Jul 4
97 °FOvercast.3 mph30%30.08 "Hg28 mi
2:00 PM96 °FOvercast.5 mph31%30.09 "Hg28 mi
1:00 PM94 °FOvercast.5 mph32%30.10 "Hg25 mi
12:00 PM91 °FOvercast.5 mph36%30.11 "Hg28 mi
11:00 AM89 °FOvercast.5 mph43%30.12 "Hg25 mi
10:00 AM84 °FOvercast.2 mph51%30.12 "Hg22 mi
9:00 AM80 °FOvercast.3 mph56%30.12 "Hg22 mi
8:00 AM78 °FOvercast.1 mph56%30.12 "Hg25 mi
7:00 AM71 °FOvercast.1 mph74%30.13 "Hg25 mi
6:00 AM74 °FScattered clouds.3 mph60%30.12 "Hg22 mi
5:00 AM75 °FClear.2 mph57%30.10 "Hg19 mi
4:00 AM72 °FClear.2 mph62%30.11 "Hg17 mi
3:00 AM77 °FClear.2 mph52%30.11 "Hg19 mi
2:00 AM78 °FClear.3 mph52%30.11 "Hg22 mi
1:00 AM81 °FClear.2 mph47%30.11 "Hg22 mi
12:00 AM78 °FClear.2 mph52%30.12 "Hg22 mi
11:00 PM
Fri, Jul 3
80 °FClear.2 mph50%30.12 "Hg22 mi
10:00 PM84 °FClear.5 mph46%30.12 "Hg22 mi
9:00 PM85 °FPassing clouds.3 mph48%30.11 "Hg19 mi
8:00 PM88 °FPartly sunny.3 mph40%30.12 "Hg19 mi
7:00 PM89 °FOvercast.3 mph39%30.12 "Hg25 mi
6:00 PM90 °FOvercast.2 mph50%30.12 "Hg28 mi
5:00 PM91 °FPartly sunny.5 mph41%30.12 "Hg25 mi
4:00 PM95 °FScattered clouds.3 mph32%30.14 "Hg22 mi
3:00 PM95 °FScattered clouds.3 mph35%30.14 "Hg19 mi
Weather by CustomWeather, © 2015

See weather overviewHow to use our weather pages